| time (UTC) | temp F | wind direction | speed knots | gust knots | rain 1hr in | rain 24hr in | rain mn in | humidity % | barometer mb |
| 20260502195006 | 51 | 22 | 3.5 | 7.0 | 0.00 | 0.21 | 0.21 | 58 | 1009.9 |
| 20260502194531 | 51 | 360 | 2.6 | 7.0 | 0.00 | 0.21 | 0.21 | 58 | 1009.9 |
| 20260502194007 | 51 | 37 | 3.5 | 7.8 | 0.00 | 0.21 | 0.21 | 58 | 1010.0 |
| 20260502193511 | 51 | 24 | 1.7 | 7.8 | 0.00 | 0.21 | 0.21 | 57 | 1010.1 |
| 20260502193028 | 51 | 338 | 2.6 | 7.8 | 0.00 | 0.21 | 0.21 | 57 | 1010.2 |
| 20260502192511 | 51 | 281 | 0.9 | 7.8 | 0.00 | 0.21 | 0.21 | 58 | 1010.3 |
| 20260502192005 | 50 | 250 | 2.6 | 6.1 | 0.00 | 0.21 | 0.21 | 60 | 1010.3 |
| 20260502191516 | 50 | 351 | 1.7 | 7.0 | 0.00 | 0.21 | 0.21 | 63 | 1010.3 |
| 20260502191007 | 50 | 53 | 3.5 | 8.7 | 0.00 | 0.21 | 0.21 | 68 | 1010.3 |
| 20260502190506 | 49 | 329 | 5.2 | 8.7 | 0.00 | 0.21 | 0.21 | 64 | 1010.4 |
| 20260502190028 | 49 | 24 | 3.5 | 7.8 | 0.00 | 0.21 | 0.21 | 66 | 1010.5 |
| 20260502185507 | 49 | 321 | 2.6 | 7.0 | 0.00 | 0.21 | 0.21 | 68 | 1010.4 |
| 20260502185011 | 49 | 352 | 2.6 | 7.0 | 0.00 | 0.21 | 0.21 | 68 | 1010.5 |
| 20260502184524 | 49 | 360 | 1.7 | 7.0 | 0.00 | 0.21 | 0.21 | 66 | 1010.5 |
| 20260502184010 | 49 | 315 | 0.9 | 7.0 | 0.00 | 0.21 | 0.21 | 69 | 1010.6 |
| 20260502183507 | 48 | 71 | 1.7 | 7.0 | 0.00 | 0.21 | 0.21 | 69 | 1010.5 |
| 20260502183024 | 47 | 333 | 2.6 | 7.8 | 0.00 | 0.21 | 0.21 | 69 | 1010.6 |
| 20260502182509 | 47 | 337 | 3.5 | 7.8 | 0.00 | 0.21 | 0.21 | 71 | 1010.7 |
| 20260502182010 | 47 | 5 | 1.7 | 5.2 | 0.00 | 0.21 | 0.21 | 74 | 1010.6 |
| 20260502181530 | 47 | 309 | 3.5 | 7.8 | 0.00 | 0.21 | 0.21 | 74 | 1010.7 |
| 20260502181008 | 46 | 309 | 2.6 | 7.8 | 0.00 | 0.21 | 0.21 | 73 | 1010.7 |
| 20260502180507 | 46 | 317 | 4.3 | 7.0 | 0.00 | 0.21 | 0.21 | 74 | 1010.7 |
| 20260502170508 | 44 | 11 | 3.5 | 10.4 | 0.00 | 0.21 | 0.21 | 79 | 1011.0 |
| 20260502164007 | 43 | 352 | 4.3 | 10.4 | 0.00 | 0.21 | 0.21 | 78 | 1011.3 |
| 20260502163508 | 43 | 352 | 3.5 | 13.0 | 0.00 | 0.21 | 0.21 | 78 | 1011.3 |
| 20260502163038 | 43 | 322 | 6.1 | 14.8 | 0.00 | 0.21 | 0.21 | 78 | 1011.3 |
| 20260502162510 | 43 | 352 | 7.0 | 14.8 | 0.00 | 0.21 | 0.21 | 79 | 1011.4 |
| 20260502162007 | 43 | 342 | 3.5 | 9.6 | 0.00 | 0.21 | 0.21 | 81 | 1011.5 |
| 20260502161526 | 43 | 5 | 5.2 | 11.3 | 0.00 | 0.21 | 0.21 | 80 | 1011.5 |
| 20260502161008 | 43 | 319 | 4.3 | 11.3 | 0.00 | 0.21 | 0.21 | 79 | 1011.4 |
| 20260502160509 | 44 | 346 | 1.7 | 11.3 | 0.00 | 0.21 | 0.21 | 78 | 1011.4 |
| 20260502152009 | 43 | 25 | 3.5 | 13.9 | 0.00 | 0.21 | 0.21 | 85 | 1011.5 |
| 20260502151540 | 43 | 5 | 7.8 | 13.9 | 0.00 | 0.21 | 0.21 | 87 | 1011.5 |
| 20260502151010 | 43 | 270 | 4.3 | 10.4 | 0.00 | 0.21 | 0.21 | 87 | 1011.4 |
| 20260502150511 | 42 | 5 | 7.0 | 10.4 | 0.00 | 0.21 | 0.21 | 88 | 1011.4 |
| 20260502130510 | 45 | 301 | 0.9 | 3.5 | 0.00 | 0.21 | 0.21 | 89 | 1011.2 |
| 20260502123509 | 45 | 266 | 1.7 | 2.6 | 0.00 | 0.21 | 0.21 | 90 | 1011.1 |
| 20260502123035 | 45 | 249 | 0.9 | 5.2 | 0.00 | 0.21 | 0.21 | 90 | 1011.1 |
| 20260502122507 | 44 | 237 | 0.9 | 5.2 | 0.00 | 0.21 | 0.21 | 91 | 1011.3 |
| 20260502122013 | 44 | 191 | 0.9 | 4.3 | 0.00 | 0.21 | 0.21 | 91 | 1011.2 |
| 20260502121521 | 44 | 254 | 0.9 | 4.3 | 0.00 | 0.21 | 0.21 | 91 | 1011.1 |
| 20260502121004 | 44 | 234 | 1.7 | 5.2 | 0.00 | 0.21 | 0.21 | 92 | 1011.0 |
| 20260502120506 | 44 | 248 | 0.9 | 5.2 | 0.00 | 0.21 | 0.21 | 92 | 1011.1 |
| 20260502115503 | 44 | 182 | 1.7 | 4.3 | 0.00 | 0.21 | 0.21 | 92 | 1011.0 |
| 20260502115003 | 43 | 209 | 0.9 | 7.0 | 0.00 | 0.21 | 0.21 | 92 | 1011.2 |
| 20260502114508 | 43 | 212 | 2.6 | 7.0 | 0.01 | 0.21 | 0.21 | 92 | 1011.1 |
| 20260502114004 | 43 | 211 | 2.6 | 4.3 | 0.02 | 0.21 | 0.21 | 92 | 1011.2 |
| 20260502113508 | 43 | 213 | 0.9 | 4.3 | 0.02 | 0.21 | 0.21 | 92 | 1011.3 |
| 20260502113014 | 43 | 184 | 2.6 | 4.3 | 0.03 | 0.21 | 0.21 | 92 | 1011.2 |
| 20260502112504 | 43 | 202 | 0.9 | 3.5 | 0.03 | 0.21 | 0.21 | 92 | 1011.0 |
| 20260502112006 | 43 | 189 | 1.7 | 2.6 | 0.03 | 0.21 | 0.21 | 92 | 1011.0 |
| 20260502111525 | 43 | 210 | 0.9 | 2.6 | 0.03 | 0.21 | 0.21 | 92 | 1010.9 |
| 20260502111007 | 43 | 180 | 1.7 | 2.6 | 0.03 | 0.21 | 0.21 | 92 | 1010.9 |
| 20260502110506 | 43 | 207 | 0.0 | 2.6 | 0.03 | 0.21 | 0.21 | 93 | 1011.0 |
| 20260502110024 | 42 | 207 | 0.9 | 2.6 | 0.03 | 0.21 | 0.21 | 92 | 1011.0 |
| 20260502105504 | 42 | 213 | 1.7 | 3.5 | 0.03 | 0.21 | 0.21 | 92 | 1011.0 |
| 20260502105003 | 42 | 188 | 1.7 | 3.5 | 0.03 | 0.21 | 0.21 | 92 | 1011.1 |
| 20260502104508 | 42 | 186 | 2.6 | 5.2 | 0.02 | 0.20 | 0.20 | 92 | 1011.1 |
| 20260502104004 | 42 | 229 | 2.6 | 5.2 | 0.02 | 0.19 | 0.19 | 92 | 1011.2 |
| 20260502103504 | 42 | 204 | 2.6 | 4.3 | 0.04 | 0.19 | 0.19 | 92 | 1011.1 |
| 20260502103011 | 42 | 189 | 1.7 | 4.3 | 0.06 | 0.18 | 0.18 | 92 | 1010.9 |
| 20260502102505 | 42 | 188 | 1.7 | 3.5 | 0.08 | 0.18 | 0.18 | 92 | 1010.8 |
| 20260502102005 | 42 | 171 | 2.6 | 4.3 | 0.09 | 0.18 | 0.18 | 92 | 1010.7 |
| 20260502101518 | 42 | 189 | 1.7 | 4.3 | 0.10 | 0.18 | 0.18 | 92 | 1010.6 |
| 20260502101006 | 42 | 181 | 2.6 | 3.5 | 0.10 | 0.18 | 0.18 | 92 | 1010.4 |
| 20260502100507 | 42 | 179 | 0.9 | 1.7 | 0.10 | 0.18 | 0.18 | 92 | 1010.3 |
| 20260502091516 | 42 | 5 | 0.0 | 0.0 | 0.00 | 0.08 | 0.08 | 91 | 1010.7 |
| 20260502091008 | 42 | 5 | 0.0 | 0.0 | 0.00 | 0.08 | 0.08 | 91 | 1010.6 |
| 20260502090505 | 43 | 5 | 0.0 | 0.0 | 0.00 | 0.08 | 0.08 | 91 | 1010.5 |
| 20260502071508 | 43 | 312 | 0.9 | 3.5 | 0.00 | 0.03 | 0.03 | 88 | 1011.0 |
| 20260502071005 | 43 | 304 | 1.7 | 3.5 | 0.01 | 0.03 | 0.03 | 88 | 1010.9 |
| 20260502070504 | 43 | 327 | 0.9 | 2.6 | 0.02 | 0.03 | 0.03 | 88 | 1010.9 |
| 20260502070015 | 43 | 315 | 0.9 | 1.7 | 0.02 | 0.03 | 0.03 | 88 | 1010.9 |
| 20260502065503 | 43 | 294 | 0.0 | 0.9 | 0.02 | 0.03 | 0.03 | 88 | 1011.0 |
| 20260502065007 | 43 | 299 | 0.0 | 0.0 | 0.02 | 0.03 | 0.03 | 88 | 1010.9 |
| 20260502064519 | 43 | 299 | 0.0 | 1.7 | 0.02 | 0.03 | 0.03 | 88 | 1010.8 |
| 20260502064012 | 43 | 299 | 0.0 | 1.7 | 0.02 | 0.03 | 0.03 | 88 | 1010.9 |
| 20260502063507 | 43 | 299 | 0.0 | 2.6 | 0.02 | 0.03 | 0.03 | 88 | 1010.7 |
| 20260502063023 | 43 | 299 | 0.0 | 3.5 | 0.02 | 0.03 | 0.03 | 87 | 1010.8 |
| 20260502062510 | 44 | 306 | 0.9 | 3.5 | 0.02 | 0.03 | 0.03 | 87 | 1010.8 |
| 20260502062010 | 43 | 349 | 0.9 | 2.6 | 0.02 | 0.03 | 0.03 | 87 | 1011.1 |
| 20260502061534 | 44 | 314 | 0.0 | 2.6 | 0.02 | 0.03 | 0.03 | 87 | 1011.2 |
| 20260502061008 | 44 | 291 | 0.9 | 2.6 | 0.01 | 0.02 | 0.02 | 87 | 1011.2 |
| 20260502060506 | 44 | 287 | 0.0 | 2.6 | 0.00 | 0.01 | 0.01 | 87 | 1011.1 |
| 20260502060009 | 44 | 277 | 0.0 | 3.5 | 0.00 | 0.01 | 0.01 | 87 | 1011.1 |
| 20260502055505 | 44 | 319 | 0.0 | 3.5 | 0.00 | 0.01 | 0.01 | 87 | 1011.0 |
| 20260502055006 | 44 | 326 | 0.0 | 1.7 | 0.00 | 0.01 | 0.01 | 87 | 1011.0 |
| 20260502054518 | 44 | 278 | 0.0 | 0.0 | 0.01 | 0.01 | 0.01 | 86 | 1011.1 |
| 20260502054007 | 44 | 203 | 0.0 | 0.0 | 0.01 | 0.01 | 0.01 | 86 | 1010.8 |
| 20260502053503 | 44 | 203 | 0.0 | 0.0 | 0.01 | 0.01 | 0.01 | 85 | 1010.9 |
| 20260502053022 | 44 | 203 | 0.0 | 0.0 | 0.01 | 0.01 | 0.01 | 85 | 1010.9 |
| 20260502052508 | 45 | 203 | 0.0 | 0.0 | 0.01 | 0.01 | 0.01 | 85 | 1010.9 |
| 20260502052008 | 45 | 203 | 0.0 | 0.0 | 0.01 | 0.01 | 0.01 | 84 | 1011.0 |
| 20260502051525 | 45 | 203 | 0.0 | 0.0 | 0.01 | 0.01 | 0.01 | 84 | 1011.0 |
| 20260502051003 | 45 | 203 | 0.0 | 0.0 | 0.01 | 0.01 | 0.01 | 84 | 1011.1 |
| 20260502050503 | 45 | 203 | 0.0 | 0.0 | 0.01 | 0.01 | 0.01 | 83 | 1011.1 |
| 20260502050010 | 45 | 203 | 0.0 | 1.7 | 0.01 | 0.01 | 0.01 | 83 | 1011.1 |
| 20260502045506 | 46 | 203 | 0.0 | 1.7 | 0.01 | 0.01 | 0.01 | 83 | 1011.3 |
| 20260502045004 | 46 | 203 | 0.0 | 0.0 | 0.01 | 0.01 | 0.01 | 82 | 1011.4 |
| 20260502044512 | 45 | 203 | 0.0 | 1.7 | 0.00 | 0.00 | 0.00 | 79 | 1011.6 |
| 20260502044008 | 45 | 203 | 0.0 | 1.7 | 0.00 | 0.00 | 0.00 | 79 | 1011.7 |
| 20260502043507 | 45 | 203 | 0.9 | 1.7 | 0.00 | 0.00 | 0.00 | 79 | 1011.5 |
| 20260502043004 | 45 | 203 | 0.0 | 2.6 | 0.00 | 0.00 | 0.00 | 79 | 1011.4 |
| 20260502042502 | 45 | 198 | 1.7 | 2.6 | 0.00 | 0.00 | 0.00 | 79 | 1011.3 |
| 20260502042004 | 45 | 275 | 0.0 | 0.0 | 0.00 | 0.00 | 0.00 | 79 | 1011.1 |
| 20260502041512 | 45 | 275 | 0.0 | 0.0 | 0.00 | 0.00 | 0.00 | 79 | 1011.3 |
| 20260502041003 | 46 | 275 | 0.0 | 0.0 | 0.00 | 0.00 | 0.00 | 78 | 1011.3 |
| 20260502040504 | 46 | 275 | 0.0 | 0.0 | 0.00 | 0.00 | 0.00 | 78 | 1011.2 |
| 20260502040012 | 46 | 275 | 0.0 | 0.0 | 0.00 | 0.00 | 0.00 | 78 | 1011.0 |
| 20260502035503 | 45 | 275 | 0.0 | 0.0 | 0.00 | 0.00 | 0.00 | 76 | 1011.1 |
| 20260502035005 | 45 | 275 | 0.0 | 0.0 | 0.00 | 0.00 | 0.00 | 74 | 1011.1 |
| 20260502034512 | 45 | 275 | 0.0 | 0.0 | 0.00 | 0.00 | 0.00 | 75 | 1011.0 |
| 20260502034004 | 45 | 275 | 0.0 | 0.0 | 0.00 | 0.00 | 0.00 | 75 | 1011.0 |
| 20260502033504 | 45 | 275 | 0.0 | 0.0 | 0.00 | 0.00 | 0.00 | 74 | 1011.2 |
| 20260502033024 | 45 | 275 | 0.0 | 0.0 | 0.00 | 0.00 | 0.00 | 74 | 1011.2 |
| 20260502032504 | 45 | 275 | 0.0 | 0.0 | 0.00 | 0.00 | 0.00 | 73 | 1011.2 |
| 20260502032007 | 45 | 275 | 0.0 | 0.0 | 0.00 | 0.00 | 0.00 | 73 | 1011.3 |
| 20260502031504 | 45 | 275 | 0.0 | 0.0 | 0.00 | 0.00 | 0.00 | 72 | 1011.3 |
| 20260502031003 | 45 | 275 | 0.0 | 0.0 | 0.00 | 0.00 | 0.00 | 72 | 1011.2 |
| 20260502030504 | 46 | 275 | 0.0 | 0.0 | 0.00 | 0.00 | 0.00 | 72 | 1011.2 |
| 20260502030006 | 46 | 274 | 0.0 | 0.0 | 0.00 | 0.00 | 0.00 | 71 | 1011.4 |
| 20260502025503 | 46 | 275 | 0.0 | 0.9 | 0.00 | 0.00 | 0.00 | 70 | 1011.4 |
| 20260502025003 | 46 | 275 | 0.0 | 0.9 | 0.00 | 0.00 | 0.00 | 70 | 1011.3 |
| 20260502024510 | 46 | 275 | 0.9 | 1.7 | 0.00 | 0.00 | 0.00 | 70 | 1011.4 |
| 20260502024006 | 46 | 275 | 0.0 | 1.7 | 0.00 | 0.00 | 0.00 | 70 | 1011.4 |
| 20260502023504 | 47 | 275 | 0.0 | 1.7 | 0.00 | 0.00 | 0.00 | 69 | 1011.4 |
| 20260502023014 | 47 | 275 | 0.0 | 1.7 | 0.00 | 0.00 | 0.00 | 69 | 1011.4 |
| 20260502022505 | 47 | 299 | 0.0 | 0.0 | 0.00 | 0.00 | 0.00 | 69 | 1011.3 |
| 20260502022008 | 47 | 299 | 0.0 | 0.0 | 0.00 | 0.00 | 0.00 | 69 | 1011.4 |
| 20260502021519 | 47 | 299 | 0.0 | 0.0 | 0.00 | 0.00 | 0.00 | 67 | 1011.5 |
| 20260502021009 | 48 | 299 | 0.0 | 0.0 | 0.00 | 0.00 | 0.00 | 66 | 1011.3 |
| 20260502020507 | 48 | 299 | 0.0 | 0.0 | 0.00 | 0.00 | 0.00 | 66 | 1011.4 |
| 20260502020004 | 48 | 299 | 0.0 | 0.0 | 0.00 | 0.00 | 0.00 | 66 | 1011.5 |
| 20260502015504 | 48 | 299 | 0.0 | 0.9 | 0.00 | 0.00 | 0.00 | 64 | 1011.5 |
| 20260502015003 | 49 | 299 | 0.0 | 0.9 | 0.00 | 0.00 | 0.00 | 63 | 1011.5 |
| 20260502014505 | 49 | 299 | 0.0 | 1.7 | 0.00 | 0.00 | 0.00 | 63 | 1011.5 |
| 20260502014004 | 49 | 306 | 0.0 | 1.7 | 0.00 | 0.00 | 0.00 | 61 | 1011.5 |
| 20260502013504 | 49 | 261 | 0.0 | 1.7 | 0.00 | 0.00 | 0.00 | 60 | 1011.5 |
| 20260502013014 | 50 | 324 | 0.0 | 2.6 | 0.00 | 0.00 | 0.00 | 62 | 1011.4 |
| 20260502012504 | 50 | 324 | 0.9 | 4.3 | 0.00 | 0.00 | 0.00 | 58 | 1011.4 |
| 20260502012009 | 50 | 321 | 1.7 | 5.2 | 0.00 | 0.00 | 0.00 | 56 | 1011.4 |
| 20260502011516 | 51 | 351 | 0.9 | 5.2 | 0.00 | 0.00 | 0.00 | 58 | 1011.4 |
| 20260502011007 | 51 | 319 | 0.0 | 2.6 | 0.00 | 0.00 | 0.00 | 59 | 1011.3 |
| 20260502010504 | 51 | 317 | 0.0 | 2.6 | 0.00 | 0.00 | 0.00 | 58 | 1011.2 |
| 20260502010023 | 51 | 304 | 0.9 | 4.3 | 0.00 | 0.00 | 0.00 | 55 | 1011.2 |
| 20260502005510 | 51 | 315 | 2.6 | 4.3 | 0.00 | 0.00 | 0.00 | 52 | 1011.2 |
| 20260502005010 | 51 | 309 | 0.9 | 4.3 | 0.00 | 0.00 | 0.00 | 53 | 1011.1 |
| 20260502004504 | 51 | 336 | 1.7 | 8.7 | 0.00 | 0.00 | 0.00 | 53 | 1011.1 |
| 20260502004003 | 51 | 352 | 3.5 | 8.7 | 0.00 | 0.00 | 0.00 | 56 | 1011.1 |
| 20260502003504 | 51 | 334 | 0.9 | 7.0 | 0.00 | 0.00 | 0.00 | 52 | 1011.0 |
| 20260502003012 | 51 | 293 | 0.0 | 7.8 | 0.00 | 0.00 | 0.00 | 54 | 1010.9 |
| 20260502002504 | 51 | 5 | 3.5 | 7.8 | 0.00 | 0.00 | 0.00 | 53 | 1010.8 |
| 20260502002009 | 51 | 16 | 2.6 | 4.3 | 0.00 | 0.00 | 0.00 | 56 | 1010.7 |
| 20260502001516 | 51 | 313 | 1.7 | 2.6 | 0.00 | 0.00 | 0.00 | 58 | 1010.7 |
| 20260502001007 | 51 | 5 | 0.0 | 1.7 | 0.00 | 0.00 | 0.00 | 61 | 1010.6 |
| 20260502000508 | 51 | 360 | 0.0 | 2.6 | 0.00 | 0.00 | 0.00 | 61 | 1010.5 |
| 20260502000021 | 51 | 360 | 0.9 | 5.2 | 0.00 | 0.00 | 0.00 | 56 | 1010.4 |
| 20260501235511 | 52 | 336 | 0.9 | 5.2 | 0.00 | 0.00 | 0.00 | 61 | 1010.4 |
| 20260501235008 | 52 | 352 | 0.9 | 5.2 | 0.00 | 0.00 | 0.00 | 62 | 1010.4 |
| 20260501234521 | 52 | 231 | 0.0 | 0.0 | 0.00 | 0.00 | 0.00 | 62 | 1010.4 |
| 20260501234007 | 53 | 230 | 0.0 | 0.0 | 0.00 | 0.00 | 0.00 | 58 | 1010.3 |
| 20260501233502 | 53 | 230 | 0.0 | 0.0 | 0.00 | 0.00 | 0.00 | 60 | 1010.2 |
| 20260501233008 | 53 | 231 | 0.0 | 0.0 | 0.00 | 0.00 | 0.00 | 58 | 1010.2 |
| 20260501232504 | 53 | 230 | 0.0 | 0.0 | 0.00 | 0.00 | 0.00 | 55 | 1010.0 |
| 20260501232002 | 54 | 289 | 0.0 | 1.7 | 0.00 | 0.00 | 0.00 | 55 | 1010.0 |
| 20260501231511 | 54 | 289 | 0.0 | 1.7 | 0.00 | 0.00 | 0.00 | 53 | 1009.9 |
| 20260501231004 | 54 | 291 | 0.0 | 1.7 | 0.00 | 0.00 | 0.00 | 54 | 1009.9 |
| 20260501230509 | 54 | 243 | 0.0 | 0.9 | 0.00 | 0.00 | 0.00 | 51 | 1009.8 |
| 20260501230016 | 55 | 282 | 0.0 | 0.0 | 0.00 | 0.00 | 0.00 | 53 | 1009.7 |
| 20260501225504 | 55 | 282 | 0.0 | 0.0 | 0.00 | 0.00 | 0.00 | 51 | 1009.7 |
| 20260501225004 | 55 | 282 | 0.0 | 0.9 | 0.00 | 0.00 | 0.00 | 50 | 1009.7 |
| 20260501224520 | 55 | 271 | 0.0 | 2.6 | 0.00 | 0.00 | 0.00 | 47 | 1009.6 |
| 20260501224005 | 55 | 271 | 0.9 | 2.6 | 0.00 | 0.00 | 0.00 | 46 | 1009.6 |
| 20260501223506 | 55 | 294 | 0.0 | 1.7 | 0.00 | 0.00 | 0.00 | 45 | 1009.6 |
| 20260501223024 | 55 | 294 | 0.0 | 2.6 | 0.00 | 0.00 | 0.00 | 40 | 1009.6 |
| 20260501222510 | 55 | 272 | 0.9 | 2.6 | 0.00 | 0.00 | 0.00 | 42 | 1009.6 |
| 20260501222003 | 56 | 290 | 0.0 | 3.5 | 0.00 | 0.00 | 0.00 | 42 | 1009.6 |
| 20260501221508 | 56 | 52 | 0.0 | 5.2 | 0.00 | 0.00 | 0.00 | 41 | 1009.6 |
| 20260501221003 | 56 | 232 | 1.7 | 6.1 | 0.00 | 0.00 | 0.00 | 40 | 1009.6 |
| 20260501220503 | 56 | 275 | 0.9 | 8.7 | 0.00 | 0.00 | 0.00 | 40 | 1009.5 |
| 20260501220011 | 56 | 200 | 0.9 | 8.7 | 0.00 | 0.00 | 0.00 | 42 | 1009.5 |
| 20260501215507 | 56 | 202 | 5.2 | 7.8 | 0.00 | 0.00 | 0.00 | 39 | 1009.5 |
| 20260501215008 | 56 | 240 | 1.7 | 6.1 | 0.00 | 0.00 | 0.00 | 40 | 1009.5 |
| 20260501214515 | 56 | 134 | 0.0 | 2.6 | 0.00 | 0.00 | 0.00 | 40 | 1009.5 |
| 20260501214008 | 56 | 212 | 0.0 | 6.1 | 0.00 | 0.00 | 0.00 | 38 | 1009.4 |
| 20260501213508 | 57 | 279 | 0.9 | 7.8 | 0.00 | 0.00 | 0.00 | 38 | 1009.5 |
| 20260501213021 | 57 | 297 | 1.7 | 7.8 | 0.00 | 0.00 | 0.00 | 39 | 1009.5 |
| 20260501212507 | 57 | 223 | 2.6 | 6.1 | 0.00 | 0.00 | 0.00 | 38 | 1009.4 |
| 20260501212007 | 57 | 272 | 2.6 | 6.1 | 0.00 | 0.00 | 0.00 | 40 | 1009.4 |
| 20260501211526 | 57 | 22 | 0.9 | 3.5 | 0.00 | 0.00 | 0.00 | 38 | 1009.4 |
| 20260501211004 | 57 | 340 | 2.6 | 3.5 | 0.00 | 0.00 | 0.00 | 37 | 1009.5 |
| 20260501210505 | 58 | 277 | 0.9 | 4.3 | 0.00 | 0.00 | 0.00 | 37 | 1009.6 |
| 20260501210012 | 58 | 292 | 0.0 | 4.3 | 0.00 | 0.00 | 0.00 | 38 | 1009.6 |
| 20260501205503 | 59 | 350 | 2.6 | 6.1 | 0.00 | 0.00 | 0.00 | 37 | 1009.7 |
| 20260501205005 | 59 | 169 | 0.9 | 7.8 | 0.00 | 0.00 | 0.00 | 39 | 1009.6 |
| 20260501204516 | 59 | 252 | 4.3 | 8.7 | 0.00 | 0.00 | 0.00 | 35 | 1009.5 |
| 20260501204007 | 58 | 360 | 2.6 | 8.7 | 0.00 | 0.00 | 0.00 | 36 | 1009.5 |
| 20260501203507 | 58 | 352 | 3.5 | 7.0 | 0.00 | 0.00 | 0.00 | 38 | 1009.4 |
| 20260501203021 | 58 | 249 | 2.6 | 6.1 | 0.00 | 0.00 | 0.00 | 39 | 1009.3 |
| 20260501202507 | 58 | 203 | 3.5 | 7.8 | 0.00 | 0.00 | 0.00 | 39 | 1009.4 |
| 20260501202008 | 57 | 234 | 0.9 | 7.8 | 0.00 | 0.00 | 0.00 | 41 | 1009.6 |
| 20260501201526 | 58 | 321 | 4.3 | 9.6 | 0.00 | 0.00 | 0.00 | 38 | 1009.6 |
| 20260501201010 | 59 | 309 | 2.6 | 9.6 | 0.00 | 0.00 | 0.00 | 37 | 1009.6 |
| 20260501200512 | 59 | 248 | 3.5 | 9.6 | 0.00 | 0.00 | 0.00 | 37 | 1009.5 |
| 20260501200026 | 59 | 27 | 0.9 | 7.0 | 0.00 | 0.00 | 0.00 | 38 | 1009.6 |
| 20260501195504 | 58 | 28 | 1.7 | 7.0 | 0.00 | 0.00 | 0.00 | 37 | 1009.6 |